Iliamna, AK

10:11 PM AKDT on August 18, 2017 (GMT -0800)
Iliamna

Weather History for PAIL - May, 2013

Change the Weather History Date:

Saturday, May 11, 2013

  Actual Average Record
Temperature  
Mean Temperature 47 °F -  
Max Temperature 57 °F 49 °F 66 °F (2014)
Min Temperature 37 °F 34 °F 22 °F (1964)
Degree Days  
Heating Degree Days 18    
Moisture  
Dew Point 33 °F    
Average Humidity 56    
Maximum Humidity 76    
Minimum Humidity 38    
Precipitation  
Precipitation 0.00 in - - ()
Sea Level Pressure  
Sea Level Pressure 29.76 in    
Wind  
Wind Speed 7 mph (NNW)    
Max Wind Speed 17 mph    
Max Gust Speed 25 mph    
Visibility 10 miles    
Events      
Averages and records for this station are not official NWS values.
T = Trace of Precipitation, MM = Missing Value Source: NWS Daily Summary

Daily Weather History Graph

Daily Weather History Graph

Search for Another Location

Airport or City:

Trip Planner

Search our weather history database for the weather conditions in past years. The results will help you decide how hot, cold, wet, or windy it might be!

Date:

Astronomy

May. 11, 2013 Rise Set
Actual Time 5:51 AM AKDT 10:41 PM AKDT
Civil Twilight 4:52 AM AKDT 11:41 PM AKDT
Nautical Twilight 2:47 AM AKDT 2:06 AM AKDT
Astronomical Twilight Sun does not set Sun does not set
Moon 6:59 AM AKDT (5/11) No Moon Set
Length of Visible Light 18h 49m
Length of Day
16h 49m
Waxing Crescent, 3% of the Moon is Illuminated
May 11
Waxing Crescent
May 17
First Quarter
May 24
Full
May 31
Last Quarter
Jun 8
New

Hourly Weather History & Observations

Time (AKDT) Temp. Windchill Dew Point Humidity Pressure Visibility Wind Dir Wind Speed Gust Speed Precip Events Conditions
12:53 AM 39.0 °F 36.8 °F 30.9 °F 73% 29.95 in 10.0 mi NNE 3.5 mph - N/A   Clear
1:53 AM 39.0 °F 34.0 °F 30.0 °F 70% 29.94 in 10.0 mi NNW 6.9 mph - N/A   Clear
2:53 AM 37.9 °F 35.5 °F 30.0 °F 73% 29.92 in 10.0 mi WNW 3.5 mph - N/A   Clear
3:53 AM 37.0 °F 33.3 °F 30.0 °F 76% 29.90 in 10.0 mi North 4.6 mph - N/A   Overcast
4:53 AM 39.0 °F - 30.9 °F 73% 29.88 in 10.0 mi Calm Calm - N/A   Overcast
5:53 AM 39.0 °F 34.0 °F 30.9 °F 73% 29.87 in 10.0 mi NNW 6.9 mph - N/A   Overcast
6:53 AM 39.0 °F 35.7 °F 30.9 °F 73% 29.84 in 10.0 mi NNW 4.6 mph - N/A   Mostly Cloudy
7:53 AM 42.1 °F 38.4 °F 30.9 °F 65% 29.83 in 10.0 mi North 5.8 mph - N/A   Scattered Clouds
8:53 AM 46.0 °F 43.9 °F 32.0 °F 58% 29.82 in 10.0 mi North 4.6 mph - N/A   Mostly Cloudy
9:53 AM 51.1 °F - 33.1 °F 50% 29.81 in 10.0 mi NNE 8.1 mph - N/A   Scattered Clouds
10:53 AM 53.1 °F - 32.0 °F 45% 29.79 in 10.0 mi NE 12.7 mph - N/A   Partly Cloudy
11:53 AM 46.9 °F - 34.0 °F 61% 29.78 in 10.0 mi ESE 6.9 mph - N/A   Partly Cloudy
12:53 PM 50.0 °F - 34.0 °F 54% 29.77 in 10.0 mi SE 5.8 mph - N/A   Scattered Clouds
1:53 PM 53.1 °F - 33.1 °F 47% 29.74 in 10.0 mi South 8.1 mph - N/A   Mostly Cloudy
2:53 PM 54.0 °F - 33.1 °F 45% 29.72 in 10.0 mi SE 6.9 mph - N/A   Mostly Cloudy
3:53 PM 54.0 °F - 36.0 °F 51% 29.69 in 10.0 mi South 9.2 mph - N/A   Mostly Cloudy
4:53 PM 55.0 °F - 36.0 °F 49% 29.67 in 10.0 mi NW 12.7 mph 17.3 mph N/A   Mostly Cloudy
5:53 PM 55.9 °F - 35.1 °F 45% 29.65 in 10.0 mi NW 16.1 mph - N/A   Mostly Cloudy
6:53 PM 55.9 °F - 36.0 °F 47% 29.65 in 10.0 mi NNW 17.3 mph 25.3 mph N/A   Mostly Cloudy
7:53 PM 55.0 °F - 35.1 °F 47% 29.64 in 10.0 mi NNW 12.7 mph 21.9 mph N/A   Mostly Cloudy
8:53 PM 53.1 °F - 35.1 °F 50% 29.63 in 10.0 mi NNW 11.5 mph - N/A   Mostly Cloudy
9:53 PM 52.0 °F - 34.0 °F 50% 29.63 in 10.0 mi NNW 11.5 mph - N/A   Overcast
10:53 PM 48.0 °F - 34.0 °F 58% 29.63 in 10.0 mi NW 9.2 mph - N/A   Scattered Clouds
11:53 PM 48.0 °F - 33.1 °F 56% 29.62 in 10.0 mi North 11.5 mph 18.4 mph N/A   Overcast